Location: El Valle
(11.2503°N, 85.8410°W)
Time: 02:39:39
(UTC+00:00)

Daily predictions for brighter satellites

Satellite Brightness Start Highest point End
(mag) Time Altitude Azimuth Time Altitude Azimuth Time Altitude Azimuth
USA 276 2.3 00:01:08 10° SW 00:04:18 69° NW 00:06:52 15° NNE
Cosmos 1461 2.9 00:00:13 10° SSW 00:04:29 77° ESE 00:08:59 10° NNE
Cosmos 1943 Rocket 3.0 00:06:03 10° NNE 00:10:45 28° ENE 00:15:28 10° SE
Cosmos 2218 Rocket 4.1 00:04:49 10° N 00:10:57 81° W 00:17:10 10° S
YAOGAN 1 3.5 00:09:38 10° SE 00:13:08 24° ENE 00:15:25 16° NE
SL-8 R/B 4.0 00:08:42 10° SW 00:13:25 63° NW 00:17:19 15° NNE
Cosmos 2366 rocket 4.2 00:09:42 10° N 00:15:49 76° W 00:21:56 10° S
ARIANE 44L R/B 4.1 00:15:52 10° S 00:16:33 11° SSE 00:17:17 10° SSE
Mugunghwa Rocket 4.4 00:14:59 10° NW 00:21:00 43° NNE 00:24:41 23° E
Cosmos 44 3.9 00:16:24 10° N 00:21:27 39° ENE 00:26:24 10° SE
CZ-2C R/B 3.2 00:22:00 23° ENE 00:24:17 34° E 00:28:56 10° SSE
Cosmos 2228 Rocket 3.8 00:19:51 10° SSW 00:24:21 57° W 00:28:49 10° N
SWIFT 2.3 00:20:41 10° WSW 00:24:51 75° NNW 00:26:35 34° ENE
Cosmos 1500 3.6 00:25:43 34° ENE 00:26:25 37° E 00:30:00 10° SSE
Palapa 6 Rocket 4.1 00:21:38 10° WNW 00:27:49 66° NNE 00:32:27 24° E
Cosmos 1680 Rocket 4.1 00:23:36 10° SSW 00:28:43 58° WNW 00:33:53 10° N
H-10 deb 3.5 00:12:21 10° W 00:29:03 60° S 00:31:37 22° ESE
Cosmos 1812 4.1 00:26:20 10° SSW 00:29:56 39° W 00:33:32 10° NNW
Cosmos 2297 3.8 00:26:56 10° NNW 00:32:38 82° WSW 00:38:22 10° SSE
GPS 2-18 Rocket1 4.2 00:34:30 10° W 00:37:54 37° SSW 00:39:33 23° SSE
CZ-2D R/B 3.8 00:35:31 10° S 00:39:14 58° W 00:42:58 10° NNW
GPS 2-12 Rocket1 3.0 00:35:40 10° WSW 00:40:28 88° SSE 00:41:43 49° ENE
CZ-3B R/B 4.1 00:34:49 10° W 00:41:20 65° NNW 00:51:45 27° ENE
Cosmos 1707 Rocket 3.4 00:38:12 10° S 00:42:38 70° E 00:44:05 41° NNE
ATLAS CENTAUR R/B 3.8 00:47:19 10° SSE 00:47:34 11° SSE 00:47:34 11° SSE
Okean-O 2.7 00:46:42 10° S 00:51:07 78° WSW 00:55:31 10° NNW
CSL-04 Debris 4.3 00:47:15 10° SSE 00:52:27 50° E 00:52:27 50° E
GPS 2-15 Rocket1 3.2 00:53:59 10° WNW 00:58:44 66° N 00:58:44 66° N
Cosmos 1437 Rocket 4.2 00:55:22 10° SSW 00:59:07 37° W 01:01:29 19° NNW
Ariane H10 4.4 00:37:11 10° W 01:01:42 51° SSW 01:04:04 32° SE
DMSP B5D2-2 3.9 01:01:46 69° E 01:01:58 70° ESE 01:07:11 10° S
Centaur AC-146 3.6 01:01:48 10° SW 01:03:30 18° SSW 01:03:30 18° SSW
Cosmos 1934 Rocket 4.2 01:07:06 49° ESE 01:07:06 49° ESE 01:12:02 10° SSE
USA 281 3.0 01:02:38 10° SSE 01:09:09 70° ENE 01:15:40 10° NNW
CZ-2C R/B 3.9 01:04:58 10° S 01:10:09 48° WSW 01:15:04 10° NNW
ATLAS 2AS CENTAUR RB 2.6 01:08:20 10° W 01:09:35 33° W 01:09:35 33° W
CSL-04 Rocket 3.9 01:05:24 10° SSE 01:09:34 53° SE 01:09:34 53° SE
Helios 1A Rocket 4.5 01:09:50 10° SSW 01:13:31 34° W 01:17:10 10° NW
ATLAS 3B R/B 2.4 01:07:13 10° SSW 01:13:49 71° ESE 01:14:05 70° E
Spelda 4.1 01:11:07 10° WSW 01:13:31 24° SW 01:13:31 24° SW
Cosmos 2344 3.6 01:06:21 10° SSW 01:15:25 66° ESE 01:16:38 58° ENE
Ariane 3 Deb 4.1 00:46:32 10° W 01:16:26 67° S 01:18:16 50° SE
Hubble Space Telescope 3.4 01:17:37 10° WNW 01:18:42 14° NW 01:18:42 14° NW
Cosmos 1238 Rocket 4.1 01:18:07 31° NNW 01:20:16 54° W 01:25:52 10° S
CZ-4 R/B 4.1 01:27:06 10° SW 01:29:42 17° W 01:32:19 10° WNW
H-2A R/B 3.5 01:36:23 10° SSW 01:41:20 37° W 01:44:12 21° NW
Cosmos 1943 Rocket 4.4 01:50:06 10° NW 01:54:10 21° WSW 01:58:18 10° SSW
USA 215 4.1 08:55:17 10° SE 08:59:41 45° ESE 08:59:41 45° ESE
SL-16 R/B 2.6 09:30:40 58° E 09:30:40 58° E 09:35:44 10° SSE
SPELTRA 3.6 09:35:17 59° SSE 09:35:17 59° SSE 09:43:50 10° E
ARIANE 5 R/B 3.2 09:43:52 30° S 09:43:52 30° S 09:46:03 10° SE
SEDSat Delta rocket 4.4 09:47:45 36° NE 09:47:45 36° NE 09:50:36 10° NE
Okean 3 Rocket 4.4 09:42:25 10° S 09:46:07 48° ESE 09:46:07 48° ESE
USA 234 3.8 09:40:23 10° NE 09:46:45 55° SE 09:53:07 10° SSW
ADEOS 4.3 09:42:01 10° NNE 09:47:04 51° ESE 09:52:07 10° S
Hubble Space Telescope 3.2 09:50:56 14° S 09:50:56 14° S 09:52:00 10° SSE
Cosmos 389 Rocket 4.1 09:53:52 33° E 09:53:52 33° E 09:56:43 10° SSE
Cosmos 1606 4.2 09:59:30 25° NE 10:00:57 34° E 10:04:23 10° SSE
Cosmos 1484 Rocket 4.0 10:02:39 32° S 10:02:39 32° S 10:04:49 10° S
Gblst 52 Del rocket 4.5 10:05:14 42° NNW 10:07:30 78° NE 10:14:24 10° SE
Cosmos 1709 Rocket 3.9 10:03:49 10° SSW 10:10:03 64° W 10:16:21 10° N
Meteor 2-3 Rocket 3.6 10:04:49 10° S 10:10:29 85° W 10:16:12 10° N
ADEOS Rocket 2.8 10:06:08 10° S 10:11:51 70° WSW 10:15:29 26° NNW
Delta 2 Rocket 3.9 10:09:11 30° WSW 10:12:37 80° SSE 10:18:38 10° ENE
FENGYUN 3A 3.5 10:08:55 10° N 10:14:14 66° WNW 10:19:33 10° SSW
Cosmos 773 Rocket 3.9 10:15:32 24° N 10:18:43 85° ENE 10:23:55 10° SSE
ATLAS 2A CENTAUR R/B 2.4 10:22:53 39° WNW 10:24:18 52° NNW 10:37:30 10° ENE
Cosmos 990 Rocket 4.0 10:19:41 10° SSW 10:24:43 52° WNW 10:29:48 10° N
H-2A R/B 1.8 10:21:01 10° S 10:25:14 83° W 10:27:30 26° NNW
ERS-2 4.4 10:28:16 10° SE 10:31:15 24° ENE 10:34:13 10° NNE
Cosmos 1943 4.5 10:26:07 10° N 10:31:24 39° ENE 10:36:39 10° SE
deb Chang Zheng 4 3.5 10:28:30 10° N 10:32:47 64° WNW 10:37:05 10° SSW
ALOS 2.9 10:36:19 28° NW 10:37:26 31° WNW 10:41:32 10° SW
Meteor 1-31 Rocket 2.9 10:34:18 13° N 10:37:28 46° WNW 10:41:05 10° SSW
FALCON 9 R/B 4.4 10:20:35 10° SW 10:38:09 32° S 10:42:53 10° ESE
Cosmos 2074 Rocket 4.2 10:34:06 10° S 10:40:18 76° E 10:46:28 10° N
SL-8 R/B 3.7 10:38:56 27° NW 10:41:27 65° SW 10:46:12 10° SSE
ATLAS 2A CENTAUR R/B 3.5 10:39:46 10° SW 10:42:36 43° SE 10:51:02 10° ENE
Centaur AC-112 4.1 10:30:34 10° WSW 10:46:10 45° NW 10:50:01 10° NE
Cosmos 1933 3.3 10:42:52 10° N 10:46:58 89° E 10:51:02 10° S
ARIANE 44L R/B 2.5 10:47:13 17° WSW 10:49:09 38° S 10:51:14 10° ESE
CZ-2C R/B 2.0 10:51:03 21° NW 10:51:18 22° NNW 10:53:52 10° NNE
Cosmos 1151 Rocket 3.1 10:48:18 10° N 10:52:34 77° E 10:56:52 10° S
Cosmos 1844 Rocket 3.3 10:50:10 10° SW 10:55:05 32° WNW 11:00:03 10° N
Cosmos 1500 Rocket 3.5 10:51:01 10° S 10:55:20 85° E 10:59:38 10° N
SJ-12 4.3 10:53:40 10° N 10:57:26 39° WNW 11:01:14 10° SSW
Cosmos 2184 Rocket 4.0 10:51:44 10° S 10:57:58 76° W 11:04:16 10° N
CRYOSAT 2 4.3 10:54:52 10° S 10:59:43 84° W 11:04:34 10° N
Haruka 2.9 10:57:12 10° SW 11:00:29 62° SSE 11:05:12 10° ENE
Meteor PRIRODA 3.8 11:00:27 10° N 11:04:02 49° WNW 11:07:37 10° SSW
Cosmos 372 Rocket 3.9 11:02:30 10° SSW 11:07:36 77° WNW 11:12:40 10° N
COSMOS 2455 3.1 11:02:00 10° SW 11:07:44 47° WNW 11:13:29 10° N
Maqsat-H 3.1 11:04:34 10° W 11:08:33 61° S 11:22:04 10° E
H-2A R/B 2.7 11:05:51 10° N 11:09:42 85° W 11:13:30 10° SSW
Cosmos 1844 4.4 11:05:01 10° SW 11:09:45 29° WNW 11:14:30 10° NNW
Meteor 1-4 Rocket 2.3 11:06:42 10° N 11:10:08 77° W 11:13:37 10° S
Cosmos 1328 Rocket 3.6 11:09:05 10° NNW 11:13:27 63° W 11:17:51 10° S
GPS 2-17 Rocket1 3.0 11:09:09 10° WSW 11:13:37 82° SSE 11:17:59 10° ENE
Sich 1 4.4 11:11:23 10° SSE 11:15:34 44° E 11:19:46 10° NNE
Cosmos 1689 Rocket 3.5 11:15:00 10° SSE 11:17:41 38° ENE 11:20:22 10° N
Delta 7925 Rocket 3.5 11:13:26 10° W 11:18:00 55° NNW 11:23:13 10° NE
Cosmos 1743 Rocket 4.0 11:15:09 10° SSW 11:19:17 41° W 11:23:27 10° NNW
Aureole 2 Rocket 3.6 11:20:11 10° WSW 11:21:30 13° WNW 11:22:49 10° NW
Atlas Centaur 2 4.3 11:20:12 10° NNW 11:21:41 11° N 11:23:06 10° N
NOSS 3-2 (C) 4.3 11:13:44 10° NNW 11:22:14 78° WSW 11:31:01 10° SSE
Okean O Rocket 3.8 11:19:06 10° NE 11:23:05 32° E 11:27:03 10° SSE
CENTAUR R/B 3.4 11:14:30 10° NNW 11:23:20 77° WSW 11:31:57 10° SSE
NOAA 6 4.3 11:18:31 10° NNE 11:23:38 78° ESE 11:28:45 10° S
COSMO-SKYMED 1 2.6 11:20:36 10° S 11:24:56 84° W 11:29:16 10° NNW
